Simultaneous Nadir Overpasses (SNOs) Predictions

Prediction of SNOs between GOES-16 and NOAA-20 Satellite Orbit:

Table of predicted SNOs for the next 14.0 days since TLE Epoch: 8/24/2024
Index Date Time (GOES-16) GOES-16 Lat,Lon NOAA-20 Lat,Lon Distance(km) Time Diff (sec)
1 08/25/2024 18:25:55 -0.06, -75.21 -0.16, -75.77 63.31 80
2 08/26/2024 18:09:48 -0.05, -75.21 0.81, -71.23 453.89 80
3 08/28/2024 06:31:34 0.05, -75.22 0.33, -76.50 145.59 80
4 08/29/2024 06:10:09 0.04, -75.23 -0.71, -71.97 371.86 80
5 08/30/2024 18:32:03 -0.03, -75.24 -0.48, -77.27 230.68 80
6 08/31/2024 18:15:57 -0.03, -75.26 0.51, -72.73 287.44 80
7 09/02/2024 06:37:43 0.02, -75.28 0.62, -78.00 310.35 80
8 09/03/2024 06:16:17 0.02, -75.30 -0.37, -73.46 208.41 80
9 09/04/2024 18:38:11 -0.02, -75.33 -0.80, -78.76 392.19 80
10 09/05/2024 18:22:04 -0.02, -75.35 0.20, -74.23 127.15 80
